Year,Month,Day,Hour,Minute,Value (Times are PST for temperature in C)
2007,07,14,00,00,16.80
2007,07,14,00,01,16.80
2007,07,14,00,02,16.80
2007,07,14,00,03,16.80
2007,07,14,00,04,16.80
2007,07,14,00,05,16.80
2007,07,14,00,06,16.80
2007,07,14,00,07,16.80
2007,07,14,00,08,16.80
2007,07,14,00,09,16.80
2007,07,14,00,10,16.70
2007,07,14,00,11,16.70
2007,07,14,00,12,16.70
2007,07,14,00,13,16.70
2007,07,14,00,14,16.80
2007,07,14,00,15,16.80
2007,07,14,00,16,16.70
2007,07,14,00,17,16.70
2007,07,14,00,18,16.70
2007,07,14,00,19,16.70
2007,07,14,00,20,16.70
2007,07,14,00,21,16.70
2007,07,14,00,22,16.70
2007,07,14,00,23,16.70
2007,07,14,00,24,16.70
2007,07,14,00,25,16.70
2007,07,14,00,26,16.70
2007,07,14,00,27,16.70
2007,07,14,00,28,16.70
2007,07,14,00,29,16.60
2007,07,14,00,30,16.60
2007,07,14,00,31,16.60
2007,07,14,00,32,16.60
2007,07,14,00,33,16.60
2007,07,14,00,34,16.60
2007,07,14,00,35,16.50
2007,07,14,00,36,16.50
2007,07,14,00,37,16.50
2007,07,14,00,38,16.50
2007,07,14,00,39,16.50
2007,07,14,00,40,16.50
2007,07,14,00,41,16.40
2007,07,14,00,42,16.40
2007,07,14,00,43,16.40
2007,07,14,00,44,16.40
2007,07,14,00,45,16.40
2007,07,14,00,46,16.40
2007,07,14,00,47,16.40
2007,07,14,00,48,16.40
2007,07,14,00,49,16.40
2007,07,14,00,50,16.40
2007,07,14,00,51,16.40
2007,07,14,00,52,16.40
2007,07,14,00,53,16.40
2007,07,14,00,54,16.40
2007,07,14,00,55,16.30
2007,07,14,00,56,16.30
2007,07,14,00,57,16.30
2007,07,14,00,58,16.30
2007,07,14,00,59,16.30
2007,07,14,01,00,16.30
2007,07,14,01,01,16.30
2007,07,14,01,02,16.30
2007,07,14,01,03,16.30
2007,07,14,01,04,16.30
2007,07,14,01,05,16.20
2007,07,14,01,06,16.20
2007,07,14,01,07,16.20
2007,07,14,01,08,16.20
2007,07,14,01,09,16.20
2007,07,14,01,10,16.20
2007,07,14,01,11,16.20
2007,07,14,01,12,16.20
2007,07,14,01,13,16.20
2007,07,14,01,14,16.10
2007,07,14,01,15,16.10
2007,07,14,01,16,16.10
2007,07,14,01,17,16.10
2007,07,14,01,18,16.10
2007,07,14,01,19,16.10
2007,07,14,01,20,16.10
2007,07,14,01,21,16.00
2007,07,14,01,22,16.00
2007,07,14,01,23,16.00
2007,07,14,01,24,16.00
2007,07,14,01,25,16.00
2007,07,14,01,26,16.00
2007,07,14,01,27,16.00
2007,07,14,01,28,16.00
2007,07,14,01,29,16.00
2007,07,14,01,30,16.00
2007,07,14,01,31,16.00
2007,07,14,01,32,16.00
2007,07,14,01,33,16.00
2007,07,14,01,34,16.00
2007,07,14,01,35,16.00
2007,07,14,01,36,16.00
2007,07,14,01,37,15.90
2007,07,14,01,38,16.00
2007,07,14,01,39,15.90
2007,07,14,01,40,15.90
2007,07,14,01,41,15.90
2007,07,14,01,42,15.90
2007,07,14,01,43,15.90
2007,07,14,01,44,15.90
2007,07,14,01,45,15.90
2007,07,14,01,46,15.90
2007,07,14,01,47,15.90
2007,07,14,01,48,15.90
2007,07,14,01,49,15.90
2007,07,14,01,50,15.90
2007,07,14,01,51,15.90
2007,07,14,01,52,15.90
2007,07,14,01,53,15.90
2007,07,14,01,54,15.90
2007,07,14,01,55,15.90
2007,07,14,01,56,15.80
2007,07,14,01,57,15.80
2007,07,14,01,58,15.80
2007,07,14,01,59,15.80
2007,07,14,02,00,15.80
2007,07,14,02,01,15.80
2007,07,14,02,02,15.80
2007,07,14,02,03,15.80
2007,07,14,02,04,15.80
2007,07,14,02,05,15.80
2007,07,14,02,06,15.80
2007,07,14,02,07,15.80
2007,07,14,02,08,15.80
2007,07,14,02,09,15.80
2007,07,14,02,10,15.80
2007,07,14,02,11,15.80
2007,07,14,02,12,15.70
2007,07,14,02,13,15.70
2007,07,14,02,14,15.70
2007,07,14,02,15,15.70
2007,07,14,02,16,15.70
2007,07,14,02,17,15.70
2007,07,14,02,18,15.70
2007,07,14,02,19,15.70
2007,07,14,02,20,15.70
2007,07,14,02,21,15.70
2007,07,14,02,22,15.70
2007,07,14,02,23,15.70
2007,07,14,02,24,15.70
2007,07,14,02,25,15.70
2007,07,14,02,26,15.80
2007,07,14,02,27,15.80
2007,07,14,02,28,15.80
2007,07,14,02,29,15.80
2007,07,14,02,30,15.80
2007,07,14,02,31,15.80
2007,07,14,02,32,15.90
2007,07,14,02,33,15.90
2007,07,14,02,34,15.90
2007,07,14,02,35,15.90
2007,07,14,02,36,16.00
2007,07,14,02,37,16.00
2007,07,14,02,38,16.00
2007,07,14,02,39,16.00
2007,07,14,02,40,16.00
2007,07,14,02,41,16.00
2007,07,14,02,42,16.00
2007,07,14,02,43,16.00
2007,07,14,02,44,16.00
2007,07,14,02,45,16.00
2007,07,14,02,46,16.00
2007,07,14,02,47,16.00
2007,07,14,02,48,16.00
2007,07,14,02,49,16.10
2007,07,14,02,50,16.10
2007,07,14,02,51,16.10
2007,07,14,02,52,16.10
2007,07,14,02,53,16.10
2007,07,14,02,54,16.10
2007,07,14,02,55,16.10
2007,07,14,02,56,16.10
2007,07,14,02,57,16.10
2007,07,14,02,58,16.10
2007,07,14,02,59,16.10
2007,07,14,03,00,16.10
2007,07,14,03,01,16.10
2007,07,14,03,02,16.00
2007,07,14,03,03,16.00
2007,07,14,03,04,16.00
2007,07,14,03,05,16.00
2007,07,14,03,06,16.00
2007,07,14,03,07,16.00
2007,07,14,03,08,15.90
2007,07,14,03,09,15.90
2007,07,14,03,10,15.90
2007,07,14,03,11,15.90
2007,07,14,03,12,15.90
2007,07,14,03,13,15.90
2007,07,14,03,14,15.90
2007,07,14,03,15,15.90
2007,07,14,03,16,15.90
2007,07,14,03,17,15.80
2007,07,14,03,18,15.80
2007,07,14,03,19,15.80
2007,07,14,03,20,15.80
2007,07,14,03,21,15.80
2007,07,14,03,22,15.80
2007,07,14,03,23,15.80
2007,07,14,03,24,15.80
2007,07,14,03,25,15.80
2007,07,14,03,26,15.80
2007,07,14,03,27,15.80
2007,07,14,03,28,15.80
2007,07,14,03,29,15.80
2007,07,14,03,30,15.80
2007,07,14,03,31,15.80
2007,07,14,03,32,15.80
2007,07,14,03,33,15.70
2007,07,14,03,34,15.70
2007,07,14,03,35,15.70
2007,07,14,03,36,15.70
2007,07,14,03,37,15.70
2007,07,14,03,38,15.70
2007,07,14,03,39,15.70
2007,07,14,03,40,15.70
2007,07,14,03,41,15.80
2007,07,14,03,42,15.80
2007,07,14,03,43,15.80
2007,07,14,03,44,15.80
2007,07,14,03,45,15.80
2007,07,14,03,46,15.80
2007,07,14,03,47,15.80
2007,07,14,03,48,15.90
2007,07,14,03,49,15.90
2007,07,14,03,50,15.90
2007,07,14,03,51,15.90
2007,07,14,03,52,15.90
2007,07,14,03,53,15.90
2007,07,14,03,54,15.90
2007,07,14,03,55,15.90
2007,07,14,03,56,15.90
2007,07,14,03,57,15.90
2007,07,14,03,58,15.90
2007,07,14,03,59,15.80
2007,07,14,04,00,15.80
2007,07,14,04,01,15.80
2007,07,14,04,02,15.80
2007,07,14,04,03,15.80
2007,07,14,04,04,15.80
2007,07,14,04,05,15.80
2007,07,14,04,06,15.80
2007,07,14,04,07,15.80
2007,07,14,04,08,15.80
2007,07,14,04,09,15.80
2007,07,14,04,10,15.80
2007,07,14,04,11,15.80
2007,07,14,04,12,15.80
2007,07,14,04,13,15.80
2007,07,14,04,14,15.80
2007,07,14,04,15,15.80
2007,07,14,04,16,15.80
2007,07,14,04,17,15.80
2007,07,14,04,18,15.70
2007,07,14,04,19,15.70
2007,07,14,04,20,15.70
2007,07,14,04,21,15.70
2007,07,14,04,22,15.70
2007,07,14,04,23,15.70
2007,07,14,04,24,15.60
2007,07,14,04,25,15.60
2007,07,14,04,26,15.60
2007,07,14,04,27,15.60
2007,07,14,04,28,15.60
2007,07,14,04,29,15.60
2007,07,14,04,30,15.60
2007,07,14,04,31,15.60
2007,07,14,04,32,15.50
2007,07,14,04,33,15.50
2007,07,14,04,34,15.50
2007,07,14,04,35,15.50
2007,07,14,04,36,15.50
2007,07,14,04,37,15.50
2007,07,14,04,38,15.40
2007,07,14,04,39,15.40
2007,07,14,04,40,15.40
2007,07,14,04,41,15.40
2007,07,14,04,42,15.40
2007,07,14,04,43,15.40
2007,07,14,04,44,15.40
2007,07,14,04,45,15.50
2007,07,14,04,46,15.50
2007,07,14,04,47,15.50
2007,07,14,04,48,15.50
2007,07,14,04,49,15.50
2007,07,14,04,50,15.50
2007,07,14,04,51,15.50
2007,07,14,04,52,15.50
2007,07,14,04,53,15.40
2007,07,14,04,54,15.50
2007,07,14,04,55,15.50
2007,07,14,04,56,15.40
2007,07,14,04,57,15.40
2007,07,14,04,58,15.40
2007,07,14,04,59,15.40
2007,07,14,05,00,15.40
2007,07,14,05,01,15.40
2007,07,14,05,02,15.40
2007,07,14,05,03,15.40
2007,07,14,05,04,15.40
2007,07,14,05,05,15.40
2007,07,14,05,06,15.40
2007,07,14,05,07,15.40
2007,07,14,05,08,15.40
2007,07,14,05,09,15.40
2007,07,14,05,10,15.40
2007,07,14,05,11,15.40
2007,07,14,05,12,15.40
2007,07,14,05,13,15.40
2007,07,14,05,14,15.40
2007,07,14,05,15,15.40
2007,07,14,05,16,15.40
2007,07,14,05,17,15.40
2007,07,14,05,18,15.40
2007,07,14,05,19,15.40
2007,07,14,05,20,15.40
2007,07,14,05,21,15.40
2007,07,14,05,22,15.30
2007,07,14,05,23,15.30
2007,07,14,05,24,15.30
2007,07,14,05,25,15.30
2007,07,14,05,26,15.20
2007,07,14,05,27,15.20
2007,07,14,05,28,15.20
2007,07,14,05,29,15.20
2007,07,14,05,30,15.20
2007,07,14,05,31,15.20
2007,07,14,05,32,15.20
2007,07,14,05,33,15.20
2007,07,14,05,34,15.20
2007,07,14,05,35,15.20
2007,07,14,05,36,15.20
2007,07,14,05,37,15.20
2007,07,14,05,38,15.20
2007,07,14,05,39,15.20
2007,07,14,05,40,15.20
2007,07,14,05,41,15.20
2007,07,14,05,42,15.00
2007,07,14,05,43,15.00
2007,07,14,05,44,15.00
2007,07,14,05,45,15.00
2007,07,14,05,46,15.00
2007,07,14,05,47,15.00
2007,07,14,05,48,15.00
2007,07,14,05,49,15.00
2007,07,14,05,50,15.00
2007,07,14,05,51,15.00
2007,07,14,05,52,15.00
2007,07,14,05,53,15.00
2007,07,14,05,54,15.00
2007,07,14,05,55,15.00
2007,07,14,05,56,15.00
2007,07,14,05,57,15.00
2007,07,14,05,58,15.00
2007,07,14,05,59,15.00
2007,07,14,06,00,15.00
2007,07,14,06,01,15.00
2007,07,14,06,02,15.00
2007,07,14,06,03,15.00
2007,07,14,06,04,15.00
2007,07,14,06,05,15.00
2007,07,14,06,06,15.00
2007,07,14,06,07,15.00
2007,07,14,06,08,15.00
2007,07,14,06,09,15.00
2007,07,14,06,10,15.00
2007,07,14,06,11,15.00
2007,07,14,06,12,15.00
2007,07,14,06,13,15.00
2007,07,14,06,14,15.00
2007,07,14,06,15,15.00
2007,07,14,06,16,15.00
2007,07,14,06,17,15.00
2007,07,14,06,18,15.00
2007,07,14,06,19,15.00
2007,07,14,06,20,15.00
2007,07,14,06,21,15.00
2007,07,14,06,22,15.00
2007,07,14,06,23,15.00
2007,07,14,06,24,15.00
2007,07,14,06,25,15.00
2007,07,14,06,26,15.00
2007,07,14,06,27,15.00
2007,07,14,06,28,15.00
2007,07,14,06,29,15.00
2007,07,14,06,30,15.00
2007,07,14,06,31,15.10
2007,07,14,06,32,15.10
2007,07,14,06,33,15.20
2007,07,14,06,34,15.20
2007,07,14,06,35,15.30
2007,07,14,06,36,15.30
2007,07,14,06,37,15.40
2007,07,14,06,38,15.50
2007,07,14,06,39,15.50
2007,07,14,06,40,15.60
2007,07,14,06,41,15.60
2007,07,14,06,42,15.70
2007,07,14,06,43,15.80
2007,07,14,06,44,15.80
2007,07,14,06,45,15.80
2007,07,14,06,46,15.90
2007,07,14,06,47,15.90
2007,07,14,06,48,15.90
2007,07,14,06,49,16.00
2007,07,14,06,50,16.00
2007,07,14,06,51,16.10
2007,07,14,06,52,16.10
2007,07,14,06,53,16.10
2007,07,14,06,54,16.20
2007,07,14,06,55,16.20
2007,07,14,06,56,16.20
2007,07,14,06,57,16.30
2007,07,14,06,58,16.30
2007,07,14,06,59,16.40
2007,07,14,07,00,16.40
2007,07,14,07,01,16.50
2007,07,14,07,02,16.50
2007,07,14,07,03,16.60
2007,07,14,07,04,16.70
2007,07,14,07,05,16.80
2007,07,14,07,06,16.90
2007,07,14,07,07,17.10
2007,07,14,07,08,17.20
2007,07,14,07,09,17.30
2007,07,14,07,10,17.30
2007,07,14,07,11,17.40
2007,07,14,07,12,17.50
2007,07,14,07,13,17.60
2007,07,14,07,14,17.70
2007,07,14,07,15,17.70
2007,07,14,07,16,17.70
2007,07,14,07,17,17.80
2007,07,14,07,18,17.80
2007,07,14,07,19,17.80
2007,07,14,07,20,17.80
2007,07,14,07,21,17.90
2007,07,14,07,22,17.80
2007,07,14,07,23,17.80
2007,07,14,07,24,17.80
2007,07,14,07,25,17.80
2007,07,14,07,26,17.90
2007,07,14,07,27,17.90
2007,07,14,07,28,17.90
2007,07,14,07,29,18.00
2007,07,14,07,30,18.10
2007,07,14,07,31,18.10
2007,07,14,07,32,18.10
2007,07,14,07,33,18.20
2007,07,14,07,34,18.10
2007,07,14,07,35,18.20
2007,07,14,07,36,18.20
2007,07,14,07,37,18.20
2007,07,14,07,38,18.30
2007,07,14,07,39,18.30
2007,07,14,07,40,18.40
2007,07,14,07,41,18.40
2007,07,14,07,42,18.40
2007,07,14,07,43,18.40
2007,07,14,07,44,18.50
2007,07,14,07,45,18.60
2007,07,14,07,46,18.60
2007,07,14,07,47,18.70
2007,07,14,07,48,18.70
2007,07,14,07,49,18.70
2007,07,14,07,50,18.80
2007,07,14,07,51,18.80
2007,07,14,07,52,18.90
2007,07,14,07,53,18.90
2007,07,14,07,54,19.00
2007,07,14,07,55,19.10
2007,07,14,07,56,19.20
2007,07,14,07,57,19.30
2007,07,14,07,58,19.40
2007,07,14,07,59,19.50
2007,07,14,08,00,19.60
2007,07,14,08,01,19.70
2007,07,14,08,02,19.80
2007,07,14,08,03,19.90
2007,07,14,08,04,20.00
2007,07,14,08,05,20.10
2007,07,14,08,06,20.20
2007,07,14,08,07,20.20
2007,07,14,08,08,20.30
2007,07,14,08,09,20.30
2007,07,14,08,10,20.30
2007,07,14,08,11,20.20
2007,07,14,08,12,20.20
2007,07,14,08,13,20.10
2007,07,14,08,14,20.10
2007,07,14,08,15,20.10
2007,07,14,08,16,20.00
2007,07,14,08,17,20.00
2007,07,14,08,18,19.90
2007,07,14,08,19,19.90
2007,07,14,08,20,19.90
2007,07,14,08,21,19.90
2007,07,14,08,22,19.90
2007,07,14,08,23,19.90
2007,07,14,08,24,20.00
2007,07,14,08,25,20.00
2007,07,14,08,26,20.10
2007,07,14,08,27,20.10
2007,07,14,08,28,20.10
2007,07,14,08,29,20.10
2007,07,14,08,30,20.10
2007,07,14,08,31,20.10
2007,07,14,08,32,20.10
2007,07,14,08,33,20.00
2007,07,14,08,34,20.00
2007,07,14,08,35,20.00
2007,07,14,08,36,19.90
2007,07,14,08,37,19.80
2007,07,14,08,38,19.80
2007,07,14,08,39,19.80
2007,07,14,08,40,19.80
2007,07,14,08,41,19.80
2007,07,14,08,42,19.80
2007,07,14,08,43,19.80
2007,07,14,08,44,19.70
2007,07,14,08,45,19.70
2007,07,14,08,46,19.60
2007,07,14,08,47,19.50
2007,07,14,08,48,19.50
2007,07,14,08,49,19.50
2007,07,14,08,50,19.50
2007,07,14,08,51,19.50
2007,07,14,08,52,19.60
2007,07,14,08,53,19.60
2007,07,14,08,54,19.60
2007,07,14,08,55,19.60
2007,07,14,08,56,19.60
2007,07,14,08,57,19.70
2007,07,14,08,58,19.70
2007,07,14,08,59,19.80
2007,07,14,09,00,19.90
2007,07,14,09,01,20.10
2007,07,14,09,02,20.30
2007,07,14,09,03,20.40
2007,07,14,09,04,20.60
2007,07,14,09,05,20.70
2007,07,14,09,06,20.80
2007,07,14,09,07,20.80
2007,07,14,09,08,20.90
2007,07,14,09,09,21.00
2007,07,14,09,10,21.10
2007,07,14,09,11,21.00
2007,07,14,09,12,20.90
2007,07,14,09,13,20.80
2007,07,14,09,14,20.80
2007,07,14,09,15,20.70
2007,07,14,09,16,20.70
2007,07,14,09,17,20.70
2007,07,14,09,18,20.70
2007,07,14,09,19,20.70
2007,07,14,09,20,20.70
2007,07,14,09,21,20.80
2007,07,14,09,22,20.70
2007,07,14,09,23,20.70
2007,07,14,09,24,20.70
2007,07,14,09,25,20.80
2007,07,14,09,26,20.90
2007,07,14,09,27,21.00
2007,07,14,09,28,21.20
2007,07,14,09,29,21.30
2007,07,14,09,30,21.40
2007,07,14,09,31,21.40
2007,07,14,09,32,21.50
2007,07,14,09,33,21.60
2007,07,14,09,34,21.60
2007,07,14,09,35,21.60
2007,07,14,09,36,21.70
2007,07,14,09,37,21.70
2007,07,14,09,38,21.70
2007,07,14,09,39,21.80
2007,07,14,09,40,21.80
2007,07,14,09,41,21.80
2007,07,14,09,42,21.80
2007,07,14,09,43,21.90
2007,07,14,09,44,21.90
2007,07,14,09,45,21.90
2007,07,14,09,46,21.90
2007,07,14,09,47,21.90
2007,07,14,09,48,21.90
2007,07,14,09,49,22.00
2007,07,14,09,50,22.10
2007,07,14,09,51,22.20
2007,07,14,09,52,22.30
2007,07,14,09,53,22.40
2007,07,14,09,54,22.40
2007,07,14,09,55,22.50
2007,07,14,09,56,22.50
2007,07,14,09,57,22.40
2007,07,14,09,58,22.40
2007,07,14,09,59,22.40
2007,07,14,10,00,22.40
2007,07,14,10,01,22.20
2007,07,14,10,02,22.10
2007,07,14,10,03,22.00
2007,07,14,10,04,22.00
2007,07,14,10,05,22.00
2007,07,14,10,06,22.20
2007,07,14,10,07,22.20
2007,07,14,10,08,22.20
2007,07,14,10,09,22.20
2007,07,14,10,10,22.20
2007,07,14,10,11,22.20
2007,07,14,10,12,22.20
2007,07,14,10,13,22.30
2007,07,14,10,14,22.30
2007,07,14,10,15,22.30
2007,07,14,10,16,22.30
2007,07,14,10,17,22.50
2007,07,14,10,18,22.60
2007,07,14,10,19,22.60
2007,07,14,10,20,22.50
2007,07,14,10,21,22.50
2007,07,14,10,22,22.40
2007,07,14,10,23,22.30
2007,07,14,10,24,22.10
2007,07,14,10,25,22.10
2007,07,14,10,26,22.00
2007,07,14,10,27,22.00
2007,07,14,10,28,22.00
2007,07,14,10,29,22.00
2007,07,14,10,30,22.00
2007,07,14,10,31,22.10
2007,07,14,10,32,22.20
2007,07,14,10,33,22.30
2007,07,14,10,34,22.40
2007,07,14,10,35,22.50
2007,07,14,10,36,22.50
2007,07,14,10,37,22.40
2007,07,14,10,38,22.30
2007,07,14,10,39,22.30
2007,07,14,10,40,22.30
2007,07,14,10,41,22.40
2007,07,14,10,42,22.50
2007,07,14,10,43,22.50
2007,07,14,10,44,22.60
2007,07,14,10,45,22.70
2007,07,14,10,46,22.90
2007,07,14,10,47,23.00
2007,07,14,10,48,23.10
2007,07,14,10,49,23.20
2007,07,14,10,50,23.30
2007,07,14,10,51,23.40
2007,07,14,10,52,23.50
2007,07,14,10,53,23.50
2007,07,14,10,54,23.60
2007,07,14,10,55,23.70
2007,07,14,10,56,23.80
2007,07,14,10,57,23.90
2007,07,14,10,58,23.90
2007,07,14,10,59,23.90
2007,07,14,11,00,23.90
2007,07,14,11,01,23.80
2007,07,14,11,02,23.70
2007,07,14,11,03,23.60
2007,07,14,11,04,23.60
2007,07,14,11,05,23.40
2007,07,14,11,06,23.30
2007,07,14,11,07,23.20
2007,07,14,11,08,23.10
2007,07,14,11,09,23.00
2007,07,14,11,10,22.90
2007,07,14,11,11,22.90
2007,07,14,11,12,23.00
2007,07,14,11,13,23.00
2007,07,14,11,14,23.00
2007,07,14,11,15,23.10
2007,07,14,11,16,23.20
2007,07,14,11,17,23.30
2007,07,14,11,18,23.30
2007,07,14,11,19,23.30
2007,07,14,11,20,23.30
2007,07,14,11,21,23.30
2007,07,14,11,22,23.30
2007,07,14,11,23,23.30
2007,07,14,11,24,23.30
2007,07,14,11,25,23.40
2007,07,14,11,26,23.50
2007,07,14,11,27,23.50
2007,07,14,11,28,23.60
2007,07,14,11,29,23.50
2007,07,14,11,30,23.50
2007,07,14,11,31,23.40
2007,07,14,11,32,23.40
2007,07,14,11,33,23.50
2007,07,14,11,34,23.60
2007,07,14,11,35,23.60
2007,07,14,11,36,23.60
2007,07,14,11,37,23.60
2007,07,14,11,38,23.60
2007,07,14,11,39,23.60
2007,07,14,11,40,23.60
2007,07,14,11,41,23.60
2007,07,14,11,42,23.60
2007,07,14,11,43,23.50
2007,07,14,11,44,23.40
2007,07,14,11,45,23.30
2007,07,14,11,46,23.20
2007,07,14,11,47,23.30
2007,07,14,11,48,23.20
2007,07,14,11,49,23.20
2007,07,14,11,50,23.20
2007,07,14,11,51,23.20
2007,07,14,11,52,23.20
2007,07,14,11,53,23.30
2007,07,14,11,54,23.40
2007,07,14,11,55,23.50
2007,07,14,11,56,23.70
2007,07,14,11,57,23.80
2007,07,14,11,58,23.80
2007,07,14,11,59,23.70
2007,07,14,12,00,23.60
2007,07,14,12,01,23.60
2007,07,14,12,02,23.50
2007,07,14,12,03,23.40
2007,07,14,12,04,23.40
2007,07,14,12,05,23.40
2007,07,14,12,06,23.40
2007,07,14,12,07,23.50
2007,07,14,12,08,23.60
2007,07,14,12,09,23.70
2007,07,14,12,10,23.90
2007,07,14,12,11,24.10
2007,07,14,12,12,24.20
2007,07,14,12,13,24.30
2007,07,14,12,14,24.30
2007,07,14,12,15,24.40
2007,07,14,12,16,24.20
2007,07,14,12,17,24.10
2007,07,14,12,18,24.10
2007,07,14,12,19,23.90
2007,07,14,12,20,23.90
2007,07,14,12,21,23.90
2007,07,14,12,22,23.90
2007,07,14,12,23,23.90
2007,07,14,12,24,23.80
2007,07,14,12,25,23.80
2007,07,14,12,26,23.80
2007,07,14,12,27,24.00
2007,07,14,12,28,24.10
2007,07,14,12,29,24.30
2007,07,14,12,30,24.40
2007,07,14,12,31,24.50
2007,07,14,12,32,24.60
2007,07,14,12,33,24.70
2007,07,14,12,34,24.70
2007,07,14,12,35,24.70
2007,07,14,12,36,24.70
2007,07,14,12,37,24.60
2007,07,14,12,38,24.50
2007,07,14,12,39,24.30
2007,07,14,12,40,24.30
2007,07,14,12,41,24.30
2007,07,14,12,42,24.20
2007,07,14,12,43,24.10
2007,07,14,12,44,24.10
2007,07,14,12,45,24.10
2007,07,14,12,46,24.20
2007,07,14,12,47,24.20
2007,07,14,12,48,24.30
2007,07,14,12,49,24.40
2007,07,14,12,50,24.40
2007,07,14,12,51,24.40
2007,07,14,12,52,24.30
2007,07,14,12,53,24.30
2007,07,14,12,54,24.30
2007,07,14,12,55,24.30
2007,07,14,12,56,24.40
2007,07,14,12,57,24.40
2007,07,14,12,58,24.40
2007,07,14,12,59,24.40
2007,07,14,13,00,24.30
2007,07,14,13,01,24.20
2007,07,14,13,02,24.10
2007,07,14,13,03,24.10
2007,07,14,13,04,24.20
2007,07,14,13,05,24.20
2007,07,14,13,06,24.20
2007,07,14,13,07,24.30
2007,07,14,13,08,24.40
2007,07,14,13,09,24.50
2007,07,14,13,10,24.40
2007,07,14,13,11,24.30
2007,07,14,13,12,24.20
2007,07,14,13,13,24.10
2007,07,14,13,14,24.00
2007,07,14,13,15,24.00
2007,07,14,13,16,24.00
2007,07,14,13,17,23.90
2007,07,14,13,18,24.00
2007,07,14,13,19,24.00
2007,07,14,13,20,23.90
2007,07,14,13,21,23.90
2007,07,14,13,22,23.80
2007,07,14,13,23,23.90
2007,07,14,13,24,23.90
2007,07,14,13,25,23.90
2007,07,14,13,26,24.00
2007,07,14,13,27,24.00
2007,07,14,13,28,24.10
2007,07,14,13,29,24.00
2007,07,14,13,30,24.00
2007,07,14,13,31,24.10
2007,07,14,13,32,24.10
2007,07,14,13,33,24.20
2007,07,14,13,34,24.20
2007,07,14,13,35,24.20
2007,07,14,13,36,24.00
2007,07,14,13,37,23.90
2007,07,14,13,38,23.80
2007,07,14,13,39,23.70
2007,07,14,13,40,23.70
2007,07,14,13,41,23.60
2007,07,14,13,42,23.60
2007,07,14,13,43,23.60
2007,07,14,13,44,23.60
2007,07,14,13,45,23.50
2007,07,14,13,46,23.50
2007,07,14,13,47,23.50
2007,07,14,13,48,23.50
2007,07,14,13,49,23.60
2007,07,14,13,50,23.70
2007,07,14,13,51,23.60
2007,07,14,13,52,23.60
2007,07,14,13,53,23.60
2007,07,14,13,54,23.60
2007,07,14,13,55,23.50
2007,07,14,13,56,23.40
2007,07,14,13,57,23.40
2007,07,14,13,58,23.40
2007,07,14,13,59,23.30
2007,07,14,14,00,23.30
2007,07,14,14,01,23.30
2007,07,14,14,02,23.30
2007,07,14,14,03,23.40
2007,07,14,14,04,23.40
2007,07,14,14,05,23.50
2007,07,14,14,06,23.50
2007,07,14,14,07,23.60
2007,07,14,14,08,23.50
2007,07,14,14,09,23.40
2007,07,14,14,10,23.30
2007,07,14,14,11,23.20
2007,07,14,14,12,23.20
2007,07,14,14,13,23.10
2007,07,14,14,14,23.10
2007,07,14,14,15,23.10
2007,07,14,14,16,23.20
2007,07,14,14,17,23.20
2007,07,14,14,18,23.30
2007,07,14,14,19,23.40
2007,07,14,14,20,23.50
2007,07,14,14,21,23.60
2007,07,14,14,22,23.70
2007,07,14,14,23,23.80
2007,07,14,14,24,23.90
2007,07,14,14,25,24.00
2007,07,14,14,26,24.20
2007,07,14,14,27,24.30
2007,07,14,14,28,24.50
2007,07,14,14,29,24.60
2007,07,14,14,30,24.70
2007,07,14,14,31,24.80
2007,07,14,14,32,24.80
2007,07,14,14,33,24.90
2007,07,14,14,34,24.90
2007,07,14,14,35,25.00
2007,07,14,14,36,25.10
2007,07,14,14,37,25.20
2007,07,14,14,38,25.30
2007,07,14,14,39,25.30
2007,07,14,14,40,25.40
2007,07,14,14,41,25.50
2007,07,14,14,42,25.60
2007,07,14,14,43,25.60
2007,07,14,14,44,25.70
2007,07,14,14,45,25.70
2007,07,14,14,46,25.60
2007,07,14,14,47,25.30
2007,07,14,14,48,25.10
2007,07,14,14,49,24.90
2007,07,14,14,50,24.70
2007,07,14,14,51,24.50
2007,07,14,14,52,24.40
2007,07,14,14,53,24.30
2007,07,14,14,54,24.30
2007,07,14,14,55,24.30
2007,07,14,14,56,24.30
2007,07,14,14,57,24.40
2007,07,14,14,58,24.50
2007,07,14,14,59,24.50
2007,07,14,15,00,24.60
2007,07,14,15,01,24.50
2007,07,14,15,02,24.50
2007,07,14,15,03,24.40
2007,07,14,15,04,24.20
2007,07,14,15,05,24.10
2007,07,14,15,06,24.10
2007,07,14,15,07,24.20
2007,07,14,15,08,24.20
2007,07,14,15,09,24.20
2007,07,14,15,10,24.30
2007,07,14,15,11,24.30
2007,07,14,15,12,24.40
2007,07,14,15,13,24.50
2007,07,14,15,14,24.60
2007,07,14,15,15,24.60
2007,07,14,15,16,24.60
2007,07,14,15,17,24.70
2007,07,14,15,18,24.70
2007,07,14,15,19,24.80
2007,07,14,15,20,24.80
2007,07,14,15,21,24.80
2007,07,14,15,22,24.70
2007,07,14,15,23,24.70
2007,07,14,15,24,24.70
2007,07,14,15,25,24.80
2007,07,14,15,26,24.80
2007,07,14,15,27,24.80
2007,07,14,15,28,24.80
2007,07,14,15,29,24.70
2007,07,14,15,30,24.50
2007,07,14,15,31,24.30
2007,07,14,15,32,24.20
2007,07,14,15,33,24.10
2007,07,14,15,34,24.00
2007,07,14,15,35,23.90
2007,07,14,15,36,23.80
2007,07,14,15,37,23.60
2007,07,14,15,38,23.30
2007,07,14,15,39,23.10
2007,07,14,15,40,22.90
2007,07,14,15,41,22.70
2007,07,14,15,42,22.50
2007,07,14,15,43,22.30
2007,07,14,15,44,22.20
2007,07,14,15,45,22.10
2007,07,14,15,46,22.00
2007,07,14,15,47,22.00
2007,07,14,15,48,21.90
2007,07,14,15,49,21.90
2007,07,14,15,50,21.90
2007,07,14,15,51,21.90
2007,07,14,15,52,21.90
2007,07,14,15,53,21.90
2007,07,14,15,54,21.90
2007,07,14,15,55,21.90
2007,07,14,15,56,22.00
2007,07,14,15,57,22.00
2007,07,14,15,58,22.00
2007,07,14,15,59,22.00
2007,07,14,16,00,22.00
2007,07,14,16,01,21.90
2007,07,14,16,02,21.90
2007,07,14,16,03,21.80
2007,07,14,16,04,21.80
2007,07,14,16,05,21.70
2007,07,14,16,06,21.60
2007,07,14,16,07,21.40
2007,07,14,16,08,21.40
2007,07,14,16,09,21.30
2007,07,14,16,10,21.20
2007,07,14,16,11,21.20
2007,07,14,16,12,21.20
2007,07,14,16,13,21.20
2007,07,14,16,14,21.20
2007,07,14,16,15,21.20
2007,07,14,16,16,21.20
2007,07,14,16,17,21.20
2007,07,14,16,18,21.20
2007,07,14,16,19,21.20
2007,07,14,16,20,21.30
2007,07,14,16,21,21.30
2007,07,14,16,22,21.30
2007,07,14,16,23,21.40
2007,07,14,16,24,21.50
2007,07,14,16,25,21.60
2007,07,14,16,26,21.70
2007,07,14,16,27,21.80
2007,07,14,16,28,21.90
2007,07,14,16,29,22.00
2007,07,14,16,30,22.00
2007,07,14,16,31,22.10
2007,07,14,16,32,22.20
2007,07,14,16,33,22.30
2007,07,14,16,34,22.50
2007,07,14,16,35,22.60
2007,07,14,16,36,22.80
2007,07,14,16,37,22.90
2007,07,14,16,38,23.10
2007,07,14,16,39,23.10
2007,07,14,16,40,23.20
2007,07,14,16,41,23.20
2007,07,14,16,42,23.30
2007,07,14,16,43,23.30
2007,07,14,16,44,23.30
2007,07,14,16,45,23.40
2007,07,14,16,46,23.40
2007,07,14,16,47,23.40
2007,07,14,16,48,23.40
2007,07,14,16,49,23.40
2007,07,14,16,50,23.40
2007,07,14,16,51,23.30
2007,07,14,16,52,23.20
2007,07,14,16,53,23.00
2007,07,14,16,54,22.90
2007,07,14,16,55,22.80
2007,07,14,16,56,22.70
2007,07,14,16,57,22.70
2007,07,14,16,58,22.60
2007,07,14,16,59,22.60
2007,07,14,17,00,22.60
2007,07,14,17,01,22.70
2007,07,14,17,02,22.70
2007,07,14,17,03,22.60
2007,07,14,17,04,22.60
2007,07,14,17,05,22.50
2007,07,14,17,06,22.50
2007,07,14,17,07,22.40
2007,07,14,17,08,22.40
2007,07,14,17,09,22.30
2007,07,14,17,10,22.20
2007,07,14,17,11,22.20
2007,07,14,17,12,22.20
2007,07,14,17,13,22.20
2007,07,14,17,14,22.20
2007,07,14,17,15,22.20
2007,07,14,17,16,22.20
2007,07,14,17,17,22.20
2007,07,14,17,18,22.20
2007,07,14,17,19,22.20